Tracking 20719 objects as of 25-May-2020
HD Live streaming from Space Station
objects crossing your sky now

COSMOS 1862

Track COSMOS 1862 now!
10-day predictions
COSMOS 1862 is classified as:


NORAD ID: 18152
Int'l Code: 1987-055A
Perigee: 544.5 km
Apogee: 564.6 km
Inclination: 82.5 °
Period: 95.6 minutes
Semi major axis: 6925 km
RCS: 8.6433 m2 (large)
Launch date: July 1, 1987
Source: Commonwealth of Independent States (former USSR) (CIS)
Launch site: PLESETSK MISSILE AND SPACE COMPLEX (PKMTR)
aabbcc
Your satellite tracking list
Your tracking list is empty




NASA's NSSDC Master Catalog

Two Line Element Set (TLE):
1 18152U 87055A   20146.09973318 -.00000065 +00000-0 -64551-5 0  9994
2 18152 082.4934 330.4422 0014495 144.0094 216.2112 15.06330128770000
Source of the keplerian elements: AFSPC